owner,sensor,date,latitude,longitude,vertical_datum,sea_water_temperature,qcFlag
BP,ioos:station:wmo:42369:3,2021-07-01T00:00:00Z,27.2001,-90.2847,447.4,68.5,11144222
BP,ioos:station:wmo:42369:3,2021-07-01T00:20:00Z,27.2001,-90.2848,447.1,68.5,11144222
BP,ioos:station:wmo:42369:3,2021-07-01T00:40:00Z,27.2001,-90.2848,446.9,68.5,11144222
BP,ioos:station:wmo:42369:3,2021-07-01T01:00:00Z,27.2001,-90.2847,447.6,68.5,11144222
BP,ioos:station:wmo:42369:3,2021-07-01T01:20:00Z,27.2000,-90.2847,448.1,68.5,11144222
BP,ioos:station:wmo:42369:3,2021-07-01T01:40:00Z,27.1999,-90.2846,448.1,68.5,11144222
BP,ioos:station:wmo:42369:3,2021-07-01T02:00:00Z,27.1999,-90.2845,447.8,68.5,11144222
BP,ioos:station:wmo:42369:3,2021-07-01T02:20:00Z,27.1999,-90.2843,447.9,68.5,11144222
BP,ioos:station:wmo:42369:3,2021-07-01T02:40:00Z,27.1999,-90.2842,447.0,68.5,11144222
BP,ioos:station:wmo:42369:3,2021-07-01T03:00:00Z,27.1998,-90.2840,447.4,68.5,11144222
BP,ioos:station:wmo:42369:3,2021-07-01T03:20:00Z,27.1998,-90.2839,448.4,68.5,11144222
BP,ioos:station:wmo:42369:3,2021-07-01T03:40:00Z,27.1998,-90.2839,448.3,68.5,11144222
BP,ioos:station:wmo:42369:3,2021-07-01T04:00:00Z,27.1997,-90.2838,448.7,68.5,11144222
BP,ioos:station:wmo:42369:3,2021-07-01T04:20:00Z,27.1997,-90.2839,447.4,68.5,11144222
BP,ioos:station:wmo:42369:3,2021-07-01T04:40:00Z,27.1997,-90.2838,447.7,68.5,11144222
BP,ioos:station:wmo:42369:3,2021-07-01T05:00:00Z,27.1996,-90.2834,448.6,68.5,11144222
BP,ioos:station:wmo:42369:3,2021-07-01T05:20:00Z,27.1996,-90.2834,447.5,68.5,11144222
BP,ioos:station:wmo:42369:3,2021-07-01T05:40:00Z,27.1996,-90.2833,448.4,68.5,11144222
BP,ioos:station:wmo:42369:3,2021-07-01T06:00:00Z,27.1995,-90.2833,447.3,68.5,11144222
BP,ioos:station:wmo:42369:3,2021-07-01T06:20:00Z,27.1995,-90.2835,448.1,68.5,11144222
BP,ioos:station:wmo:42369:3,2021-07-01T06:40:00Z,27.1995,-90.2837,447.2,68.5,11144222
BP,ioos:station:wmo:42369:3,2021-07-01T07:00:00Z,27.1996,-90.2839,447.1,68.5,11144222
BP,ioos:station:wmo:42369:3,2021-07-01T07:20:00Z,27.1996,-90.2841,448.2,68.5,11144222
BP,ioos:station:wmo:42369:3,2021-07-01T07:40:00Z,27.1996,-90.2842,447.6,68.5,11144222
BP,ioos:station:wmo:42369:3,2021-07-01T08:00:00Z,27.1997,-90.2843,448.1,68.5,11144222
BP,ioos:station:wmo:42369:3,2021-07-01T08:20:00Z,27.1997,-90.2843,447.9,68.5,11144222
BP,ioos:station:wmo:42369:3,2021-07-01T08:40:00Z,27.1999,-90.2846,449.1,68.5,11144222
BP,ioos:station:wmo:42369:3,2021-07-01T09:00:00Z,27.2001,-90.2848,448.2,68.5,11144222
BP,ioos:station:wmo:42369:3,2021-07-01T09:20:00Z,27.2001,-90.2849,447.0,68.5,11144222
BP,ioos:station:wmo:42369:3,2021-07-01T09:40:00Z,27.2001,-90.2849,447.1,68.5,11144222
BP,ioos:station:wmo:42369:3,2021-07-01T10:00:00Z,27.2001,-90.2850,447.7,68.5,11144222
BP,ioos:station:wmo:42369:3,2021-07-01T10:20:00Z,27.2001,-90.2850,447.7,68.5,11144222
BP,ioos:station:wmo:42369:3,2021-07-01T10:40:00Z,27.2000,-90.2848,447.4,68.5,11144222
BP,ioos:station:wmo:42369:3,2021-07-01T11:00:00Z,27.2000,-90.2848,447.9,68.5,11144222
BP,ioos:station:wmo:42369:3,2021-07-01T11:20:00Z,27.2001,-90.2849,447.4,68.5,11144222
BP,ioos:station:wmo:42369:3,2021-07-01T11:40:00Z,27.2001,-90.2849,447.6,68.5,11144222
BP,ioos:station:wmo:42369:3,2021-07-01T12:00:00Z,27.2003,-90.2850,447.7,68.4,11144222
BP,ioos:station:wmo:42369:3,2021-07-01T12:20:00Z,27.2004,-90.2848,447.0,68.4,11144222
BP,ioos:station:wmo:42369:3,2021-07-01T12:40:00Z,27.2004,-90.2844,447.6,68.4,11144222
BP,ioos:station:wmo:42369:3,2021-07-01T13:00:00Z,27.2004,-90.2839,447.1,68.4,11144222
BP,ioos:station:wmo:42369:3,2021-07-01T13:20:00Z,27.2003,-90.2837,448.2,68.4,11144222
BP,ioos:station:wmo:42369:3,2021-07-01T13:40:00Z,27.2001,-90.2835,447.7,68.4,11144222
BP,ioos:station:wmo:42369:3,2021-07-01T14:00:00Z,27.2000,-90.2835,447.3,68.4,11144222
BP,ioos:station:wmo:42369:3,2021-07-01T14:20:00Z,27.1999,-90.2833,447.3,68.4,11144222
BP,ioos:station:wmo:42369:3,2021-07-01T14:40:00Z,27.1999,-90.2833,447.6,68.5,11144222
BP,ioos:station:wmo:42369:3,2021-07-01T15:00:00Z,27.2000,-90.2832,446.9,68.5,11144222
BP,ioos:station:wmo:42369:3,2021-07-01T15:20:00Z,27.2000,-90.2831,446.6,68.5,11144222
BP,ioos:station:wmo:42369:3,2021-07-01T15:40:00Z,27.1999,-90.2830,446.7,68.5,11144222
BP,ioos:station:wmo:42369:3,2021-07-01T16:00:00Z,27.1999,-90.2829,447.2,68.5,11144222
BP,ioos:station:wmo:42369:3,2021-07-01T16:20:00Z,27.1999,-90.2830,447.9,68.5,11144222
BP,ioos:station:wmo:42369:3,2021-07-01T16:40:00Z,27.1998,-90.2830,446.9,68.5,11144222
BP,ioos:station:wmo:42369:3,2021-07-01T17:00:00Z,27.1998,-90.2830,446.9,68.5,11144222
BP,ioos:station:wmo:42369:3,2021-07-01T17:20:00Z,27.1998,-90.2829,448.5,68.5,11144222
BP,ioos:station:wmo:42369:3,2021-07-01T17:40:00Z,27.1998,-90.2829,446.6,68.5,11144222
BP,ioos:station:wmo:42369:3,2021-07-01T18:00:00Z,27.1999,-90.2829,446.7,68.5,11144222
BP,ioos:station:wmo:42369:3,2021-07-01T18:20:00Z,27.2001,-90.2828,446.8,68.5,11144222
BP,ioos:station:wmo:42369:3,2021-07-01T18:40:00Z,27.2006,-90.2829,447.3,68.5,11144222
BP,ioos:station:wmo:42369:3,2021-07-01T19:00:00Z,27.2004,-90.2830,448.0,68.5,11144222
BP,ioos:station:wmo:42369:3,2021-07-01T19:20:00Z,27.2003,-90.2829,447.4,68.5,11144222
BP,ioos:station:wmo:42369:3,2021-07-01T19:40:00Z,27.2000,-90.2825,447.1,68.5,11144222
BP,ioos:station:wmo:42369:3,2021-07-01T20:00:00Z,27.1998,-90.2820,447.5,68.5,11144222
BP,ioos:station:wmo:42369:3,2021-07-01T20:20:00Z,27.1998,-90.2818,447.9,68.5,11144222
BP,ioos:station:wmo:42369:3,2021-07-01T20:40:00Z,27.1998,-90.2818,446.5,68.5,11144222
BP,ioos:station:wmo:42369:3,2021-07-01T21:00:00Z,27.1998,-90.2816,448.7,68.5,11144222
BP,ioos:station:wmo:42369:3,2021-07-01T21:20:00Z,27.1997,-90.2814,447.9,68.5,11144222
BP,ioos:station:wmo:42369:3,2021-07-01T21:40:00Z,27.1997,-90.2814,448.3,68.5,11144222
BP,ioos:station:wmo:42369:3,2021-07-01T22:00:00Z,27.1998,-90.2814,447.8,68.5,11144222
BP,ioos:station:wmo:42369:3,2021-07-01T22:20:00Z,27.1998,-90.2815,447.7,68.5,11144222
BP,ioos:station:wmo:42369:3,2021-07-01T22:40:00Z,27.1998,-90.2815,447.6,68.5,11144222
BP,ioos:station:wmo:42369:3,2021-07-01T23:00:00Z,27.1998,-90.2815,446.9,68.5,11144222
BP,ioos:station:wmo:42369:3,2021-07-01T23:20:00Z,27.1998,-90.2815,446.2,68.5,11144222
BP,ioos:station:wmo:42369:3,2021-07-01T23:40:00Z,27.2000,-90.2813,447.2,68.5,11144222
BP,ioos:station:wmo:42369:3,2021-07-02T00:00:00Z,27.1999,-90.2811,447.5,68.5,11144222
BP,ioos:station:wmo:42369:3,2021-07-02T00:20:00Z,27.1998,-90.2811,446.7,68.5,11144222
BP,ioos:station:wmo:42369:3,2021-07-02T00:40:00Z,27.1998,-90.2812,447.2,68.5,11144222
BP,ioos:station:wmo:42369:3,2021-07-02T01:00:00Z,27.1997,-90.2812,447.6,68.5,11144222
BP,ioos:station:wmo:42369:3,2021-07-02T01:20:00Z,27.1997,-90.2814,448.1,68.5,11144222
BP,ioos:station:wmo:42369:3,2021-07-02T01:40:00Z,27.1997,-90.2815,447.6,68.5,11144222
BP,ioos:station:wmo:42369:3,2021-07-02T02:00:00Z,27.1998,-90.2816,448.5,68.5,11144222
BP,ioos:station:wmo:42369:3,2021-07-02T02:20:00Z,27.1997,-90.2817,447.2,68.5,11144222
BP,ioos:station:wmo:42369:3,2021-07-02T02:40:00Z,27.1997,-90.2817,447.9,68.5,11144222
BP,ioos:station:wmo:42369:3,2021-07-02T03:00:00Z,27.1997,-90.2817,447.0,68.5,11144222
BP,ioos:station:wmo:42369:3,2021-07-02T03:20:00Z,27.1997,-90.2817,447.3,68.5,11144222
BP,ioos:station:wmo:42369:3,2021-07-02T03:40:00Z,27.1997,-90.2818,447.3,68.5,11144222
BP,ioos:station:wmo:42369:3,2021-07-02T04:00:00Z,27.1997,-90.2818,447.1,68.5,11144222
BP,ioos:station:wmo:42369:3,2021-07-02T04:20:00Z,27.1997,-90.2818,447.6,68.5,11144222
BP,ioos:station:wmo:42369:3,2021-07-02T04:40:00Z,27.1997,-90.2818,448.1,68.5,11144222
BP,ioos:station:wmo:42369:3,2021-07-02T05:00:00Z,27.1997,-90.2818,447.9,68.5,11144222
BP,ioos:station:wmo:42369:3,2021-07-02T05:20:00Z,27.1997,-90.2818,448.6,68.5,11144222
BP,ioos:station:wmo:42369:3,2021-07-02T05:40:00Z,27.1997,-90.2818,447.6,68.5,11144222
BP,ioos:station:wmo:42369:3,2021-07-02T06:00:00Z,27.1997,-90.2820,447.7,68.5,11144222
BP,ioos:station:wmo:42369:3,2021-07-02T06:20:00Z,27.1997,-90.2821,447.6,68.5,11144222
BP,ioos:station:wmo:42369:3,2021-07-02T06:40:00Z,27.1997,-90.2822,447.6,68.5,11144222
BP,ioos:station:wmo:42369:3,2021-07-02T07:00:00Z,27.1998,-90.2824,447.1,68.5,11144222
BP,ioos:station:wmo:42369:3,2021-07-02T07:20:00Z,27.1998,-90.2824,447.8,68.5,11144222
BP,ioos:station:wmo:42369:3,2021-07-02T07:40:00Z,27.1998,-90.2824,447.0,68.5,11144222
BP,ioos:station:wmo:42369:3,2021-07-02T08:00:00Z,27.1998,-90.2823,448.0,68.5,11144222
BP,ioos:station:wmo:42369:3,2021-07-02T08:20:00Z,27.1998,-90.2823,447.6,68.5,11144222
BP,ioos:station:wmo:42369:3,2021-07-02T08:40:00Z,27.1998,-90.2824,447.7,68.5,11144222
BP,ioos:station:wmo:42369:3,2021-07-02T09:00:00Z,27.1998,-90.2825,447.6,68.5,11144222
BP,ioos:station:wmo:42369:3,2021-07-02T09:20:00Z,27.1998,-90.2825,447.5,68.5,11144222
BP,ioos:station:wmo:42369:3,2021-07-02T09:40:00Z,27.1998,-90.2825,447.7,68.5,11144222
BP,ioos:station:wmo:42369:3,2021-07-02T10:00:00Z,27.1997,-90.2826,447.3,68.5,11144222
BP,ioos:station:wmo:42369:3,2021-07-02T10:20:00Z,27.1997,-90.2826,446.8,68.5,11144222
BP,ioos:station:wmo:42369:3,2021-07-02T10:40:00Z,27.1997,-90.2827,447.4,68.5,11144222
BP,ioos:station:wmo:42369:3,2021-07-02T11:00:00Z,27.1997,-90.2830,447.3,68.5,11144222
BP,ioos:station:wmo:42369:3,2021-07-02T11:20:00Z,27.1997,-90.2832,447.9,68.5,11144222
BP,ioos:station:wmo:42369:3,2021-07-02T11:40:00Z,27.1997,-90.2835,447.3,68.5,11144222
BP,ioos:station:wmo:42369:3,2021-07-02T12:00:00Z,27.1997,-90.2836,447.9,68.5,11144222
BP,ioos:station:wmo:42369:3,2021-07-02T12:20:00Z,27.1997,-90.2837,447.3,68.5,11144222
BP,ioos:station:wmo:42369:3,2021-07-02T12:40:00Z,27.1997,-90.2838,448.0,68.5,11144222
BP,ioos:station:wmo:42369:3,2021-07-02T13:00:00Z,27.1997,-90.2838,447.8,68.5,11144222
BP,ioos:station:wmo:42369:3,2021-07-02T13:20:00Z,27.1998,-90.2839,447.4,68.5,11144222
BP,ioos:station:wmo:42369:3,2021-07-02T13:40:00Z,27.1998,-90.2839,447.7,68.5,11144222
BP,ioos:station:wmo:42369:3,2021-07-02T14:00:00Z,27.1998,-90.2838,447.7,68.5,11144222
BP,ioos:station:wmo:42369:3,2021-07-02T14:20:00Z,27.1998,-90.2838,448.0,68.5,11144222
BP,ioos:station:wmo:42369:3,2021-07-02T14:40:00Z,27.1998,-90.2836,448.3,68.5,11144222
BP,ioos:station:wmo:42369:3,2021-07-02T15:00:00Z,27.1998,-90.2835,447.6,68.5,11144222
BP,ioos:station:wmo:42369:3,2021-07-02T15:20:00Z,27.1998,-90.2833,446.9,68.5,11144222
BP,ioos:station:wmo:42369:3,2021-07-02T15:40:00Z,27.1999,-90.2831,447.5,68.5,11144222
BP,ioos:station:wmo:42369:3,2021-07-02T16:00:00Z,27.1998,-90.2830,447.5,68.5,11144222
BP,ioos:station:wmo:42369:3,2021-07-02T16:20:00Z,27.1999,-90.2827,448.5,68.5,11144222
BP,ioos:station:wmo:42369:3,2021-07-02T16:40:00Z,27.1998,-90.2825,447.3,68.5,11144222
BP,ioos:station:wmo:42369:3,2021-07-02T17:00:00Z,27.1999,-90.2822,447.4,68.5,11144222
BP,ioos:station:wmo:42369:3,2021-07-02T17:20:00Z,27.1999,-90.2818,447.0,68.5,11144222
BP,ioos:station:wmo:42369:3,2021-07-02T17:40:00Z,27.1999,-90.2814,448.0,68.5,11144222
BP,ioos:station:wmo:42369:3,2021-07-02T18:00:00Z,27.2000,-90.2812,448.1,68.5,11144222
BP,ioos:station:wmo:42369:3,2021-07-02T18:20:00Z,27.2000,-90.2810,447.4,68.5,11144222
BP,ioos:station:wmo:42369:3,2021-07-02T18:40:00Z,27.2000,-90.2807,447.4,68.5,11144222
BP,ioos:station:wmo:42369:3,2021-07-02T19:00:00Z,27.2000,-90.2805,447.9,68.5,11144222
BP,ioos:station:wmo:42369:3,2021-07-02T19:20:00Z,27.2000,-90.2805,447.1,68.5,11144222
BP,ioos:station:wmo:42369:3,2021-07-02T19:40:00Z,27.2001,-90.2802,447.3,68.5,11144222
BP,ioos:station:wmo:42369:3,2021-07-02T20:00:00Z,27.2001,-90.2801,448.0,68.5,11144222
BP,ioos:station:wmo:42369:3,2021-07-02T20:20:00Z,27.2000,-90.2800,447.4,68.5,11144222
BP,ioos:station:wmo:42369:3,2021-07-02T20:40:00Z,27.2000,-90.2799,447.0,68.5,11144222
BP,ioos:station:wmo:42369:3,2021-07-02T21:00:00Z,27.2000,-90.2798,447.2,68.5,11144222
BP,ioos:station:wmo:42369:3,2021-07-02T21:20:00Z,27.2000,-90.2798,448.0,68.5,11144222
BP,ioos:station:wmo:42369:3,2021-07-02T21:40:00Z,27.1999,-90.2798,447.5,68.5,11144222
BP,ioos:station:wmo:42369:3,2021-07-02T22:00:00Z,27.1999,-90.2799,446.9,68.6,11144222
BP,ioos:station:wmo:42369:3,2021-07-02T22:20:00Z,27.1999,-90.2799,448.2,68.5,11144222
BP,ioos:station:wmo:42369:3,2021-07-02T22:40:00Z,27.1998,-90.2800,447.5,68.5,11144222
BP,ioos:station:wmo:42369:3,2021-07-02T23:00:00Z,27.1998,-90.2801,447.2,68.5,11144222
BP,ioos:station:wmo:42369:3,2021-07-02T23:20:00Z,27.1997,-90.2803,447.1,68.5,11144222
BP,ioos:station:wmo:42369:3,2021-07-02T23:40:00Z,27.1997,-90.2804,447.4,68.5,11144222
BP,ioos:station:wmo:42369:3,2021-07-03T00:00:00Z,27.1996,-90.2805,447.2,68.5,11144222
BP,ioos:station:wmo:42369:3,2021-07-03T00:20:00Z,27.1996,-90.2806,447.8,68.5,11144222
BP,ioos:station:wmo:42369:3,2021-07-03T00:40:00Z,27.1995,-90.2806,448.6,68.5,11144222
BP,ioos:station:wmo:42369:3,2021-07-03T01:00:00Z,27.1996,-90.2805,446.9,68.5,11144222
BP,ioos:station:wmo:42369:3,2021-07-03T01:20:00Z,27.1996,-90.2806,447.2,68.6,11144222
BP,ioos:station:wmo:42369:3,2021-07-03T01:40:00Z,27.1995,-90.2807,447.6,68.5,11144222
BP,ioos:station:wmo:42369:3,2021-07-03T02:00:00Z,27.1995,-90.2808,447.7,68.5,11144222
BP,ioos:station:wmo:42369:3,2021-07-03T02:20:00Z,27.1995,-90.2811,446.8,68.5,11144222
BP,ioos:station:wmo:42369:3,2021-07-03T02:40:00Z,27.1995,-90.2813,448.9,68.5,11144222
BP,ioos:station:wmo:42369:3,2021-07-03T03:00:00Z,27.1995,-90.2814,447.7,68.5,11144222
BP,ioos:station:wmo:42369:3,2021-07-03T03:20:00Z,27.1995,-90.2816,448.0,68.5,11144222
BP,ioos:station:wmo:42369:3,2021-07-03T03:40:00Z,27.1995,-90.2817,448.8,68.5,11144222
BP,ioos:station:wmo:42369:3,2021-07-03T04:00:00Z,27.1995,-90.2818,448.4,68.5,11144222
BP,ioos:station:wmo:42369:3,2021-07-03T04:20:00Z,27.1995,-90.2819,447.8,68.5,11144222
BP,ioos:station:wmo:42369:3,2021-07-03T04:40:00Z,27.1995,-90.2821,448.4,68.5,11144222
BP,ioos:station:wmo:42369:3,2021-07-03T05:00:00Z,27.1995,-90.2822,448.1,68.5,11144222
BP,ioos:station:wmo:42369:3,2021-07-03T05:20:00Z,27.1995,-90.2823,448.9,68.5,11144222
BP,ioos:station:wmo:42369:3,2021-07-03T05:40:00Z,27.1995,-90.2825,448.2,68.6,11144222
BP,ioos:station:wmo:42369:3,2021-07-03T06:00:00Z,27.1995,-90.2825,447.2,68.6,11144222
BP,ioos:station:wmo:42369:3,2021-07-03T06:20:00Z,27.1995,-90.2825,447.7,68.5,11144222
BP,ioos:station:wmo:42369:3,2021-07-03T06:40:00Z,27.1995,-90.2825,448.1,68.5,11144222
BP,ioos:station:wmo:42369:3,2021-07-03T07:00:00Z,27.1994,-90.2822,448.0,68.5,11144222
BP,ioos:station:wmo:42369:3,2021-07-03T07:20:00Z,27.1995,-90.2821,448.4,68.5,11144222
BP,ioos:station:wmo:42369:3,2021-07-03T07:40:00Z,27.1995,-90.2820,447.7,68.5,11144222
BP,ioos:station:wmo:42369:3,2021-07-03T08:00:00Z,27.1995,-90.2819,447.7,68.5,11144222
BP,ioos:station:wmo:42369:3,2021-07-03T08:20:00Z,27.1995,-90.2817,447.5,68.5,11144222
BP,ioos:station:wmo:42369:3,2021-07-03T08:40:00Z,27.1996,-90.2816,447.4,68.5,11144222
BP,ioos:station:wmo:42369:3,2021-07-03T09:00:00Z,27.1996,-90.2816,448.7,68.5,11144222
BP,ioos:station:wmo:42369:3,2021-07-03T09:20:00Z,27.1996,-90.2815,448.8,68.5,11144222
BP,ioos:station:wmo:42369:3,2021-07-03T09:40:00Z,27.1996,-90.2814,447.7,68.5,11144222
BP,ioos:station:wmo:42369:3,2021-07-03T10:00:00Z,27.1996,-90.2815,448.2,68.5,11144222
BP,ioos:station:wmo:42369:3,2021-07-03T10:20:00Z,27.1996,-90.2815,447.4,68.5,11144222
BP,ioos:station:wmo:42369:3,2021-07-03T10:40:00Z,27.1996,-90.2815,447.9,68.5,11144222
BP,ioos:station:wmo:42369:3,2021-07-03T11:00:00Z,27.1995,-90.2814,448.3,68.5,11144222
BP,ioos:station:wmo:42369:3,2021-07-03T11:20:00Z,27.1995,-90.2813,447.5,68.5,11144222
BP,ioos:station:wmo:42369:3,2021-07-03T11:40:00Z,27.1996,-90.2813,448.3,68.5,11144222
BP,ioos:station:wmo:42369:3,2021-07-03T12:00:00Z,27.1996,-90.2813,447.6,68.5,11144222
BP,ioos:station:wmo:42369:3,2021-07-03T12:20:00Z,27.1996,-90.2812,447.9,68.5,11144222
BP,ioos:station:wmo:42369:3,2021-07-03T12:40:00Z,27.1995,-90.2812,448.2,68.5,11144222
BP,ioos:station:wmo:42369:3,2021-07-03T13:00:00Z,27.1995,-90.2813,447.7,68.5,11144222
BP,ioos:station:wmo:42369:3,2021-07-03T13:20:00Z,27.1996,-90.2813,447.8,68.5,11144222
BP,ioos:station:wmo:42369:3,2021-07-03T13:40:00Z,27.1996,-90.2813,447.6,68.5,11144222
BP,ioos:station:wmo:42369:3,2021-07-03T14:00:00Z,27.1996,-90.2812,447.6,68.5,11144222
BP,ioos:station:wmo:42369:3,2021-07-03T14:20:00Z,27.1996,-90.2812,447.1,68.5,11144222
BP,ioos:station:wmo:42369:3,2021-07-03T14:40:00Z,27.1996,-90.2810,447.4,68.5,11144222
BP,ioos:station:wmo:42369:3,2021-07-03T15:00:00Z,27.1996,-90.2809,447.6,68.5,11144222
BP,ioos:station:wmo:42369:3,2021-07-03T15:20:00Z,27.1996,-90.2807,447.7,68.5,11144222
BP,ioos:station:wmo:42369:3,2021-07-03T15:40:00Z,27.1997,-90.2805,447.3,68.5,11144222
BP,ioos:station:wmo:42369:3,2021-07-03T16:00:00Z,27.1998,-90.2803,447.6,68.5,11144222
BP,ioos:station:wmo:42369:3,2021-07-03T16:20:00Z,27.1999,-90.2801,447.1,68.5,11144222
BP,ioos:station:wmo:42369:3,2021-07-03T16:40:00Z,27.1999,-90.2799,447.1,68.5,11144222
BP,ioos:station:wmo:42369:3,2021-07-03T17:00:00Z,27.1999,-90.2797,448.1,68.5,11144222
BP,ioos:station:wmo:42369:3,2021-07-03T17:20:00Z,27.1999,-90.2796,447.7,68.5,11144222
BP,ioos:station:wmo:42369:3,2021-07-03T17:40:00Z,27.2000,-90.2794,447.4,68.5,11144222
BP,ioos:station:wmo:42369:3,2021-07-03T18:00:00Z,27.2002,-90.2791,448.1,68.5,11144222
BP,ioos:station:wmo:42369:3,2021-07-03T18:20:00Z,27.2003,-90.2788,447.3,68.5,11144222
BP,ioos:station:wmo:42369:3,2021-07-03T18:40:00Z,27.2004,-90.2786,448.0,68.5,11144222
BP,ioos:station:wmo:42369:3,2021-07-03T19:00:00Z,27.2003,-90.2786,447.8,68.5,11144222
BP,ioos:station:wmo:42369:3,2021-07-03T19:20:00Z,27.2003,-90.2785,446.7,68.5,11144222
BP,ioos:station:wmo:42369:3,2021-07-03T19:40:00Z,27.2002,-90.2787,447.3,68.5,11144222
BP,ioos:station:wmo:42369:3,2021-07-03T20:00:00Z,27.2002,-90.2789,448.2,68.5,11144222
BP,ioos:station:wmo:42369:3,2021-07-03T20:20:00Z,27.2001,-90.2790,447.9,68.5,11144222
BP,ioos:station:wmo:42369:3,2021-07-03T20:40:00Z,27.2001,-90.2790,447.8,68.5,11144222
BP,ioos:station:wmo:42369:3,2021-07-03T21:00:00Z,27.2001,-90.2791,447.7,68.5,11144222
BP,ioos:station:wmo:42369:3,2021-07-03T21:20:00Z,27.2000,-90.2792,446.4,68.5,11144222
BP,ioos:station:wmo:42369:3,2021-07-03T21:40:00Z,27.2000,-90.2793,447.3,68.5,11144222
BP,ioos:station:wmo:42369:3,2021-07-03T22:00:00Z,27.1999,-90.2795,448.2,68.5,11144222
BP,ioos:station:wmo:42369:3,2021-07-03T22:20:00Z,27.1999,-90.2797,446.8,68.5,11144222
BP,ioos:station:wmo:42369:3,2021-07-03T22:40:00Z,27.1999,-90.2797,446.9,68.5,11144222
BP,ioos:station:wmo:42369:3,2021-07-03T23:00:00Z,27.1998,-90.2798,447.7,68.5,11144222
BP,ioos:station:wmo:42369:3,2021-07-03T23:20:00Z,27.1998,-90.2800,447.2,68.5,11144222
BP,ioos:station:wmo:42369:3,2021-07-03T23:40:00Z,27.1997,-90.2803,447.7,68.5,11144222
BP,ioos:station:wmo:42369:3,2021-07-04T00:00:00Z,27.1996,-90.2806,447.8,68.5,11144222
BP,ioos:station:wmo:42369:3,2021-07-04T00:20:00Z,27.1995,-90.2809,448.3,68.5,11144222
BP,ioos:station:wmo:42369:3,2021-07-04T00:40:00Z,27.1995,-90.2811,447.4,68.5,11144222
BP,ioos:station:wmo:42369:3,2021-07-04T01:00:00Z,27.1995,-90.2816,447.3,68.5,11144222
BP,ioos:station:wmo:42369:3,2021-07-04T01:20:00Z,27.1995,-90.2820,447.1,68.5,11144222
BP,ioos:station:wmo:42369:3,2021-07-04T01:40:00Z,27.1994,-90.2822,448.3,68.5,11144222
BP,ioos:station:wmo:42369:3,2021-07-04T02:00:00Z,27.1994,-90.2825,448.5,68.5,11144222
BP,ioos:station:wmo:42369:3,2021-07-04T02:20:00Z,27.1994,-90.2828,447.6,68.5,11144222
BP,ioos:station:wmo:42369:3,2021-07-04T02:40:00Z,27.1994,-90.2831,447.6,68.5,11144222
BP,ioos:station:wmo:42369:3,2021-07-04T03:00:00Z,27.1994,-90.2832,448.4,68.5,11144222
BP,ioos:station:wmo:42369:3,2021-07-04T03:20:00Z,27.1995,-90.2833,448.4,68.5,11144222
BP,ioos:station:wmo:42369:3,2021-07-04T03:40:00Z,27.1995,-90.2834,448.3,68.5,11144222
BP,ioos:station:wmo:42369:3,2021-07-04T04:00:00Z,27.1995,-90.2836,447.9,68.5,11144222
BP,ioos:station:wmo:42369:3,2021-07-04T04:20:00Z,27.1996,-90.2838,448.4,68.5,11144222
BP,ioos:station:wmo:42369:3,2021-07-04T04:40:00Z,27.1996,-90.2840,448.5,68.5,11144222
BP,ioos:station:wmo:42369:3,2021-07-04T05:00:00Z,27.1998,-90.2843,447.9,68.5,11144222
BP,ioos:station:wmo:42369:3,2021-07-04T05:20:00Z,27.1999,-90.2844,448.1,68.5,11144222
BP,ioos:station:wmo:42369:3,2021-07-04T05:40:00Z,27.2000,-90.2844,447.0,68.5,11144222
BP,ioos:station:wmo:42369:3,2021-07-04T06:00:00Z,27.2000,-90.2844,446.5,68.5,11144222
BP,ioos:station:wmo:42369:3,2021-07-04T06:20:00Z,27.1999,-90.2844,447.6,68.5,11144222
BP,ioos:station:wmo:42369:3,2021-07-04T06:40:00Z,27.1998,-90.2843,447.5,68.5,11144222
BP,ioos:station:wmo:42369:3,2021-07-04T07:00:00Z,27.1998,-90.2844,448.0,68.5,11144222
BP,ioos:station:wmo:42369:3,2021-07-04T07:20:00Z,27.2000,-90.2843,448.7,68.5,11144222
BP,ioos:station:wmo:42369:3,2021-07-04T07:40:00Z,27.2000,-90.2843,447.4,68.5,11144222
BP,ioos:station:wmo:42369:3,2021-07-04T08:00:00Z,27.2001,-90.2844,447.8,68.5,11144222
BP,ioos:station:wmo:42369:3,2021-07-04T08:20:00Z,27.2001,-90.2845,447.0,68.5,11144222
BP,ioos:station:wmo:42369:3,2021-07-04T08:40:00Z,27.2002,-90.2845,447.8,68.5,11144222
BP,ioos:station:wmo:42369:3,2021-07-04T09:00:00Z,27.2002,-90.2846,447.9,68.5,11144222
BP,ioos:station:wmo:42369:3,2021-07-04T09:20:00Z,27.2003,-90.2846,448.6,68.5,11144222
BP,ioos:station:wmo:42369:3,2021-07-04T09:40:00Z,27.2003,-90.2846,447.1,68.5,11144222
BP,ioos:station:wmo:42369:3,2021-07-04T10:00:00Z,27.2005,-90.2846,447.4,68.5,11144222
BP,ioos:station:wmo:42369:3,2021-07-04T10:20:00Z,27.2007,-90.2846,447.6,68.5,11144222
BP,ioos:station:wmo:42369:3,2021-07-04T10:40:00Z,27.2007,-90.2844,446.7,68.5,11144222
BP,ioos:station:wmo:42369:3,2021-07-04T11:00:00Z,27.2008,-90.2844,447.7,68.5,11144222
BP,ioos:station:wmo:42369:3,2021-07-04T11:20:00Z,27.2009,-90.2843,448.0,68.5,11144222
BP,ioos:station:wmo:42369:3,2021-07-04T11:40:00Z,27.2008,-90.2840,447.6,68.5,11144222
BP,ioos:station:wmo:42369:3,2021-07-04T12:00:00Z,27.2005,-90.2841,447.3,68.5,11144222
BP,ioos:station:wmo:42369:3,2021-07-04T12:20:00Z,27.2004,-90.2842,448.5,68.5,11144222
BP,ioos:station:wmo:42369:3,2021-07-04T12:40:00Z,27.2004,-90.2842,447.2,68.5,11144222
BP,ioos:station:wmo:42369:3,2021-07-04T13:00:00Z,27.2008,-90.2840,447.5,68.5,11144222
BP,ioos:station:wmo:42369:3,2021-07-04T13:20:00Z,27.2010,-90.2840,447.7,68.5,11144222
BP,ioos:station:wmo:42369:3,2021-07-04T13:40:00Z,27.2012,-90.2837,448.2,68.5,11144222
BP,ioos:station:wmo:42369:3,2021-07-04T14:00:00Z,27.2012,-90.2835,447.3,68.5,11144222
BP,ioos:station:wmo:42369:3,2021-07-04T14:20:00Z,27.2006,-90.2834,448.5,68.5,11144222
BP,ioos:station:wmo:42369:3,2021-07-04T14:40:00Z,27.2002,-90.2832,447.0,68.5,11144222
BP,ioos:station:wmo:42369:3,2021-07-04T15:00:00Z,27.2000,-90.2827,448.3,68.5,11144222
BP,ioos:station:wmo:42369:3,2021-07-04T15:20:00Z,27.1996,-90.2822,447.7,68.5,11144222
BP,ioos:station:wmo:42369:3,2021-07-04T15:40:00Z,27.1996,-90.2819,447.5,68.5,11144222
BP,ioos:station:wmo:42369:3,2021-07-04T16:00:00Z,27.1993,-90.2817,448.1,68.5,11144222
BP,ioos:station:wmo:42369:3,2021-07-04T16:20:00Z,27.1993,-90.2814,448.1,68.5,11144222
BP,ioos:station:wmo:42369:3,2021-07-04T16:40:00Z,27.1993,-90.2810,448.7,68.5,11144222
BP,ioos:station:wmo:42369:3,2021-07-04T17:00:00Z,27.1994,-90.2804,448.3,68.5,11144222
BP,ioos:station:wmo:42369:3,2021-07-04T17:20:00Z,27.1995,-90.2802,448.6,68.5,11144222
BP,ioos:station:wmo:42369:3,2021-07-04T17:40:00Z,27.1995,-90.2801,448.6,68.5,11144222
BP,ioos:station:wmo:42369:3,2021-07-04T18:00:00Z,27.1995,-90.2802,448.0,68.5,11144222
BP,ioos:station:wmo:42369:3,2021-07-04T18:20:00Z,27.1995,-90.2803,447.9,68.5,11144222
BP,ioos:station:wmo:42369:3,2021-07-04T18:40:00Z,27.1995,-90.2803,447.7,68.5,11144222
BP,ioos:station:wmo:42369:3,2021-07-04T19:00:00Z,27.1995,-90.2803,447.6,68.5,11144222